Weather History for Oxford, CT

Change the Weather History Date:

Sunday, November 4, 2012

  Actual Average Record
Temperature  
Mean Temperature 40 °F -  
Max Temperature 46 °F 50 °F 66 °F (2005)
Min Temperature 35 °F 34 °F 23 °F (1998)
Degree Days  
Heating Degree Days 24    
Moisture  
Dew Point 27 °F    
Average Humidity 64    
Maximum Humidity 70    
Minimum Humidity 50    
Precipitation  
Precipitation 0.00 in - - ()
Sea Level Pressure  
Sea Level Pressure 29.93 in    
Wind  
Wind Speed 8 mph (NNW)    
Max Wind Speed 14 mph    
Max Gust Speed 21 mph    
Visibility 10 miles    
Events      
Averages and records for this station are not official NWS values.
T = Trace of Precipitation, MM = Missing Value Source: NWS Daily Summary

Daily Weather History Graph

Daily Weather History Graph

Search for Another Location

Airport:

Trip Planner

Search our weather history database for the weather conditions in past years. The results will help you decide how hot, cold, wet, or windy it might be!

Date:

Astronomy

Nov. 04, 2012 Rise Set
Actual Time 6:28 AM EST 4:43 PM EST
Civil Twilight 5:59 AM EST 5:12 PM EST
Nautical Twilight 5:26 AM EST 5:45 PM EST
Astronomical Twilight 4:54 AM EST 6:17 PM EST
Moon 9:18 PM EST (11/4) 11:11 AM EST (11/4)
Length of Visible Light 11h 12m
Length of Day
10h 14m
Waning Gibbous, 72% of the Moon is Illuminated
Nov 4
Waning Gibbous
Nov 6
Last Quarter
Nov 13
New
Nov 20
First Quarter
Nov 28
Full

Hourly Weather History & Observations

Time (EST) Temp. Windchill Dew Point Humidity Pressure Visibility Wind Dir Wind Speed Gust Speed Precip Events Conditions
12:15 AM 37.4 °F 31.4 °F 28.4 °F 70% 29.89 in 10.0 mi NW 8.1 mph - N/A   Clear
12:35 AM 37.4 °F 30.8 °F 26.6 °F 65% 29.90 in 10.0 mi NW 9.2 mph - N/A   Clear
12:55 AM 37.4 °F 32.1 °F 26.6 °F 65% 29.90 in 10.0 mi NW 6.9 mph 16.1 mph N/A   Clear
1:15 AM 37.4 °F 31.4 °F 26.6 °F 65% 29.90 in 10.0 mi NW 8.1 mph 20.7 mph N/A   Clear
1:35 AM 37.4 °F 31.4 °F 26.6 °F 65% 29.90 in 10.0 mi NW 8.1 mph - N/A   Clear
1:55 AM 37.4 °F 29.8 °F 26.6 °F 65% 29.90 in 10.0 mi NW 11.5 mph - N/A   Clear
1:15 AM 37.4 °F 29.8 °F 26.6 °F 65% 29.90 in 10.0 mi NW 11.5 mph 16.1 mph N/A   Clear
1:35 AM 37.4 °F 32.1 °F 26.6 °F 65% 29.91 in 10.0 mi NW 6.9 mph - N/A   Clear
1:55 AM 37.4 °F 30.8 °F 26.6 °F 65% 29.91 in 10.0 mi NW 9.2 mph - N/A   Clear
2:15 AM 37.4 °F 31.4 °F 26.6 °F 65% 29.90 in 10.0 mi NW 8.1 mph - N/A   Clear
2:35 AM 35.6 °F 30.7 °F 26.6 °F 70% 29.90 in 10.0 mi NW 5.8 mph - N/A   Clear
2:55 AM 35.6 °F 28.6 °F 26.6 °F 70% 29.90 in 10.0 mi NNW 9.2 mph - N/A   Clear
3:15 AM 37.4 °F 32.1 °F 26.6 °F 65% 29.90 in 10.0 mi NW 6.9 mph - N/A   Clear
3:35 AM 35.6 °F 29.9 °F 26.6 °F 70% 29.90 in 10.0 mi NW 6.9 mph - N/A   Clear
3:55 AM 35.6 °F 29.9 °F 26.6 °F 70% 29.90 in 10.0 mi NW 6.9 mph - N/A   Clear
4:15 AM 35.6 °F 30.7 °F 26.6 °F 70% 29.91 in 10.0 mi NW 5.8 mph - N/A   Clear
4:35 AM 35.6 °F 28.0 °F 26.6 °F 70% 29.91 in 10.0 mi NNW 10.4 mph - N/A   Clear
4:55 AM 35.6 °F 29.9 °F 26.6 °F 70% 29.92 in 10.0 mi NW 6.9 mph 16.1 mph N/A   Clear
5:15 AM 35.6 °F 28.0 °F 26.6 °F 70% 29.92 in 10.0 mi NNW 10.4 mph - N/A   Clear
5:35 AM 35.6 °F 30.7 °F 26.6 °F 70% 29.92 in 10.0 mi NW 5.8 mph - N/A   Clear
5:45 AM 35.6 °F - 26.6 °F 70% 29.92 in 10.0 mi NNW 1.2 mph - N/A   Clear
7:45 AM 37.4 °F 32.1 °F 28.4 °F 70% 29.95 in 10.0 mi NNW 6.9 mph 17.3 mph N/A   Clear
8:45 AM 39.2 °F 31.2 °F 28.4 °F 65% 29.95 in 10.0 mi NNW 13.8 mph 20.7 mph N/A   Clear
9:45 AM 42.8 °F 36.6 °F 28.4 °F 57% 29.94 in 10.0 mi NNW 11.5 mph 20.7 mph N/A   Clear
10:45 AM 44.6 °F 38.8 °F 28.4 °F 53% 29.94 in 10.0 mi North 11.5 mph 17.3 mph N/A   Clear
11:45 AM 46.4 °F 41.1 °F 30.2 °F 53% 29.92 in 10.0 mi NNW 11.5 mph 17.3 mph N/A   Partly Cloudy
12:45 PM 46.4 °F 41.5 °F 30.2 °F 53% 29.91 in 10.0 mi NNW 10.4 mph - N/A   Partly Cloudy
1:45 PM 46.4 °F 40.7 °F 30.2 °F 53% 29.91 in 10.0 mi NNW 12.7 mph 18.4 mph N/A   Partly Cloudy
2:45 PM 46.4 °F 41.5 °F 28.4 °F 50% 29.91 in 10.0 mi NNW 10.4 mph 17.3 mph N/A   Partly Cloudy
3:45 PM 44.6 °F 39.2 °F 28.4 °F 53% 29.93 in 10.0 mi NNW 10.4 mph - N/A   Clear
4:45 PM 42.8 °F 39.3 °F 26.6 °F 53% 29.93 in 10.0 mi NNW 5.8 mph - N/A   Clear
5:45 PM 37.4 °F 32.1 °F 26.6 °F 65% 29.95 in 10.0 mi North 6.9 mph - N/A   Clear
6:45 PM 37.4 °F 32.1 °F 26.6 °F 65% 29.97 in 10.0 mi North 6.9 mph - N/A   Clear
7:45 PM 37.4 °F 32.1 °F 26.6 °F 65% 29.97 in 10.0 mi North 6.9 mph - N/A   Overcast
9:15 PM 39.2 °F 31.6 °F 26.6 °F 61% 29.97 in 10.0 mi North 12.7 mph - N/A   Overcast
9:35 PM 39.2 °F 32.0 °F 26.6 °F 61% 29.97 in 10.0 mi NNW 11.5 mph - N/A   Overcast
9:55 PM 39.2 °F 34.2 °F 26.6 °F 61% 29.97 in 10.0 mi NW 6.9 mph - N/A   Overcast
10:15 PM 37.4 °F 32.8 °F 26.6 °F 65% 29.97 in 10.0 mi NNW 5.8 mph - N/A   Overcast
10:35 PM 37.4 °F 32.1 °F 28.4 °F 70% 29.97 in 10.0 mi NNW 6.9 mph - N/A   Overcast
10:55 PM 37.4 °F 30.8 °F 26.6 °F 65% 29.97 in 10.0 mi NNW 9.2 mph - N/A   Overcast